Regional Weather Roundup
Issued by NWS

Home | Current Version | Previous Version | Text Only | Print | Product List | Glossary Off
Versions: 1 2 3 4 5 6 7 8 9 10 11 12 13 14 15 16 17 18 19 20 21 22 23 24 25 26 27 28 29 30 31 32 33 34 35 36 37 38 39 40 41 42 43 44 45 46 47 48 49 50

000
ASUS43 KLMK 231110
RWRKY
KENTUCKY REGIONAL WEATHER ROUNDUP
NATIONAL WEATHER SERVICE LOUISVILLE KY
700 AM EDT SAT MAY 23 2015

NOTE "FAIR" INDICATES FEW OR NO CLOUDS BELOW 12,000 FEET
WITH NO SIGNIFICANT WEATHER AND/OR OBSTRUCTIONS TO VISIBILITY.

KYZ001>023-026-027-061>063-070>075-231200-
WESTERN AND SOUTH CENTRAL KENTUCKY

CITY           SKY/WX    TMP DP  RH WIND       PRES   REMARKS
PADUCAH        CLOUDY    59  55  87 CALM      30.31R
HENDERSON      MOCLDY    57  54  88 CALM      30.33R
OWENSBORO      CLOUDY    58  55  89 CALM      30.34R
HOPKINSVILLE   CLOUDY    57  51  81 CALM      30.32R
BOWLING GREEN  MOCLDY    54  51  90 CALM      30.34R
GLASGOW        CLOUDY    52  52  98 CALM      30.35R
$$

KYZ024-025-028>034-038-045-046-053-231200-
NORTH CENTRAL KENTUCKY

CITY           SKY/WX    TMP DP  RH WIND       PRES   REMARKS
LOUISVILLE/SDF MOCLDY    56  51  84 SE5       30.35R
LOUISVILLE/LOU PTCLDY    54  50  86 CALM      30.35R
FORT KNOX      PTCLDY    52  49  92 CALM      30.33R
$$

KYZ035>037-039>044-047>052-055>060-089>105-231200-
NORTHEAST KENTUCKY

CITY           SKY/WX    TMP DP  RH WIND       PRES   REMARKS
LEXINGTON      PTCLDY    50  46  86 E3        30.36R
COVINGTON      CLOUDY    55  49  80 SE3       30.35R
FRANKFORT      PTCLDY    49  46  90 CALM      30.35R
$$

KYZ054-064>069-076>088-106>120-231200-
SOUTHEAST KENTUCKY

CITY           SKY/WX    TMP DP  RH WIND       PRES   REMARKS
JACKSON        MOCLDY    53  45  74 S3        30.38R
LONDON         MOCLDY    49  44  83 CALM      30.37R
SOMERSET       PTCLDY    48  48 100 CALM      30.38R
MIDDLESBORO    MOCLDY    47  46  98 CALM      30.40R
MONTICELLO     PTSUNNY   51  50  97 CALM      30.39R
$$



USA.gov is the U.S. government's official web portal to all federal, state and local government web resources and services.